• In Deutschland
  • Länderverzeichnis
  • Für 7 Tage
  • Wassertemperatur
  • Satellitenkarten
  • Wetterkarte
  • Widgets
  • user-avatar
    Anmelden

    Stündliche Wetter Wenningstedt-Braderup

    Heute, 20 Februar, Dienstag

    Zeit Temperatur Niederschläge Wind Luftdruck Luftfeuchtigkeit
    00:00 +3°C° 0,1 mm 1 m/S 763 mmHg 93%
    01:00 +1°C° 0 mm 2 m/S 764 mmHg 94%
    02:00 +1°C° 0 mm 2 m/S 764 mmHg 94%
    03:00 +1°C° 0 mm 2 m/S 764 mmHg 94%
    04:00 0°C° 0 mm 3 m/S 764 mmHg 95%
    05:00 0°C° 0 mm 3 m/S 764 mmHg 94%
    06:00 0°C° 0 mm 3 m/S 764 mmHg 94%
    07:00 -1°C° 0 mm 3 m/S 764 mmHg 94%
    08:00 -1°C° 0 mm 4 m/S 765 mmHg 90%
    09:00 0°C° 0 mm 4 m/S 765 mmHg 87%
    10:00 +1°C° 0 mm 5 m/S 765 mmHg 84%
    11:00 +1°C° 0 mm 5 m/S 765 mmHg 80%
    12:00 +2°C° 0 mm 5 m/S 765 mmHg 76%
    13:00 +3°C° 0 mm 4 m/S 766 mmHg 72%
    14:00 +3°C° 0 mm 4 m/S 766 mmHg 71%
    15:00 +3°C° 0 mm 4 m/S 766 mmHg 71%
    16:00 +3°C° 0 mm 4 m/S 766 mmHg 71%
    17:00 0°C° 0 mm 5 m/S 767 mmHg 75%
    18:00 -1°C° 0 mm 5 m/S 767 mmHg 79%
    19:00 -2°C° 0 mm 5 m/S 767 mmHg 83%
    20:00 -2°C° 0 mm 5 m/S 768 mmHg 83%
    21:00 -2°C° 0 mm 4 m/S 768 mmHg 83%
    22:00 -2°C° 0 mm 4 m/S 769 mmHg 83%
    23:00 -2°C° 0 mm 4 m/S 769 mmHg 82%

    Morgen, 21 Februar, Mittwoch

    Zeit Temperatur Niederschläge Wind Luftdruck Luftfeuchtigkeit
    00:00 -2°C° 0 mm 3 m/S 769 mmHg 82%
    01:00 -2°C° 0 mm 3 m/S 769 mmHg 82%
    02:00 -2°C° 0 mm 3 m/S 769 mmHg 82%
    03:00 -2°C° 0 mm 2 m/S 769 mmHg 82%
    04:00 -2°C° 0 mm 2 m/S 769 mmHg 82%
    05:00 -2°C° 0 mm 2 m/S 769 mmHg 82%
    06:00 0°C° 0 mm 1 m/S 769 mmHg 82%
    07:00 0°C° 0 mm 1 m/S 769 mmHg 83%
    08:00 +1°C° 0 mm 1 m/S 769 mmHg 78%
    09:00 +2°C° 0 mm 1 m/S 769 mmHg 74%
    10:00 +3°C° 0 mm 1 m/S 770 mmHg 70%
    11:00 +3°C° 0 mm 1 m/S 769 mmHg 67%
    12:00 +4°C° 0 mm 1 m/S 769 mmHg 64%
    13:00 +5°C° 0 mm 1 m/S 769 mmHg 61%
    14:00 +5°C° 0 mm 1 m/S 769 mmHg 62%
    15:00 +3°C° 0 mm 2 m/S 769 mmHg 64%
    16:00 +3°C° 0 mm 2 m/S 768 mmHg 66%
    17:00 +3°C° 0 mm 2 m/S 768 mmHg 70%
    18:00 +2°C° 0 mm 2 m/S 768 mmHg 75%
    19:00 +1°C° 0 mm 2 m/S 769 mmHg 80%
    20:00 +1°C° 0 mm 2 m/S 769 mmHg 82%
    21:00 +1°C° 0 mm 2 m/S 769 mmHg 83%
    22:00 +1°C° 0 mm 2 m/S 769 mmHg 84%
    23:00 +1°C° 0 mm 2 m/S 769 mmHg 85%

    übermorgen, 22 Februar, Donnerstag

    Zeit Temperatur Niederschläge Wind Luftdruck Luftfeuchtigkeit
    00:00 +1°C° 0 mm 2 m/S 769 mmHg 86%
    01:00 +1°C° 0 mm 2 m/S 769 mmHg 86%
    02:00 +1°C° 0 mm 2 m/S 769 mmHg 87%
    03:00 +1°C° 0 mm 2 m/S 769 mmHg 87%
    04:00 +1°C° 0 mm 2 m/S 769 mmHg 88%
    05:00 +1°C° 0 mm 2 m/S 769 mmHg 88%
    06:00 +1°C° 0 mm 2 m/S 769 mmHg 89%
    07:00 +1°C° 0 mm 2 m/S 769 mmHg 89%
    08:00 +1°C° 0 mm 2 m/S 769 mmHg 87%
    09:00 +2°C° 0 mm 2 m/S 769 mmHg 85%
    10:00 +4°C° 0 mm 1 m/S 770 mmHg 82%
    11:00 +4°C° 0 mm 1 m/S 770 mmHg 80%
    12:00 +5°C° 0 mm 1 m/S 770 mmHg 78%
    13:00 +5°C° 0 mm 1 m/S 770 mmHg 76%
    14:00 +5°C° 0 mm 1 m/S 770 mmHg 77%
    15:00 +4°C° 0 mm 2 m/S 770 mmHg 78%
    16:00 +4°C° 0 mm 2 m/S 770 mmHg 79%
    17:00 +3°C° 0 mm 2 m/S 770 mmHg 81%
    18:00 +1°C° 0 mm 3 m/S 770 mmHg 83%
    19:00 -1°C° 0 mm 4 m/S 770 mmHg 84%
    20:00 -1°C° 0 mm 4 m/S 770 mmHg 84%
    21:00 -2°C° 0 mm 5 m/S 770 mmHg 84%
    22:00 -2°C° 0 mm 5 m/S 771 mmHg 83%
    23:00 -4°C° 0 mm 5 m/S 771 mmHg 84%

    23 Februar, Freitag

    Zeit Temperatur Niederschläge Wind Luftdruck Luftfeuchtigkeit
    00:00 -4°C° 0 mm 5 m/S 771 mmHg 84%
    01:00 -4°C° 0 mm 4 m/S 771 mmHg 84%
    02:00 -4°C° 0 mm 4 m/S 771 mmHg 84%
    03:00 -4°C° 0 mm 4 m/S 771 mmHg 84%
    04:00 -4°C° 0 mm 3 m/S 771 mmHg 84%
    05:00 -4°C° 0 mm 3 m/S 771 mmHg 84%
    06:00 -4°C° 0 mm 3 m/S 771 mmHg 84%
    07:00 -4°C° 0 mm 4 m/S 771 mmHg 84%
    08:00 -3°C° 0 mm 4 m/S 772 mmHg 80%
    09:00 -2°C° 0 mm 4 m/S 772 mmHg 75%
    10:00 -2°C° 0 mm 4 m/S 772 mmHg 70%
    11:00 -1°C° 0 mm 4 m/S 772 mmHg 67%
    12:00 0°C° 0 mm 4 m/S 772 mmHg 65%
    13:00 0°C° 0 mm 4 m/S 772 mmHg 62%
    14:00 0°C° 0 mm 4 m/S 772 mmHg 63%
    15:00 0°C° 0 mm 4 m/S 772 mmHg 64%
    16:00 0°C° 0 mm 4 m/S 772 mmHg 65%
    17:00 -1°C° 0 mm 5 m/S 772 mmHg 68%
    18:00 -2°C° 0 mm 5 m/S 773 mmHg 72%
    19:00 -4°C° 0 mm 5 m/S 773 mmHg 75%
    20:00 -4°C° 0 mm 6 m/S 773 mmHg 76%
    21:00 -4°C° 0 mm 6 m/S 773 mmHg 76%
    22:00 -4°C° 0 mm 6 m/S 774 mmHg 76%
    23:00 -4°C° 0 mm 6 m/S 774 mmHg 76%

    24 Februar, Samstag

    Zeit Temperatur Niederschläge Wind Luftdruck Luftfeuchtigkeit
    00:00 -4°C° 0 mm 6 m/S 774 mmHg 76%
    01:00 -4°C° 0 mm 6 m/S 775 mmHg 75%
    02:00 -4°C° 0 mm 6 m/S 775 mmHg 75%
    03:00 -4°C° 0 mm 7 m/S 775 mmHg 75%
    04:00 -4°C° 0 mm 7 m/S 775 mmHg 75%
    05:00 -4°C° 0 mm 7 m/S 775 mmHg 75%
    06:00 -4°C° 0 mm 7 m/S 775 mmHg 75%
    07:00 -4°C° 0 mm 7 m/S 775 mmHg 75%
    08:00 -4°C° 0 mm 8 m/S 776 mmHg 70%
    09:00 -4°C° 0 mm 8 m/S 776 mmHg 66%
    10:00 -3°C° 0 mm 9 m/S 776 mmHg 61%
    11:00 -3°C° 0 mm 9 m/S 777 mmHg 59%
    12:00 -3°C° 0 mm 9 m/S 777 mmHg 57%
    13:00 -3°C° 0 mm 9 m/S 777 mmHg 55%
    14:00 -3°C° 0 mm 9 m/S 777 mmHg 55%
    15:00 -3°C° 0 mm 9 m/S 777 mmHg 55%
    16:00 -3°C° 0 mm 9 m/S 776 mmHg 55%
    17:00 -4°C° 0 mm 9 m/S 777 mmHg 58%
    18:00 -5°C° 0 mm 9 m/S 777 mmHg 61%
    19:00 -6°C° 0 mm 9 m/S 777 mmHg 64%
    20:00 -6°C° 0 mm 8 m/S 777 mmHg 64%
    21:00 -6°C° 0 mm 8 m/S 777 mmHg 64%
    22:00 -6°C° 0 mm 8 m/S 778 mmHg 65%
    23:00 -7°C° 0 mm 8 m/S 777 mmHg 65%

    25 Februar, Sonntag

    Zeit Temperatur Niederschläge Wind Luftdruck Luftfeuchtigkeit
    00:00 -7°C° 0 mm 7 m/S 777 mmHg 65%
    01:00 -7°C° 0 mm 7 m/S 777 mmHg 65%
    02:00 -6°C° 0 mm 6 m/S 777 mmHg 64%
    03:00 -6°C° 0 mm 6 m/S 777 mmHg 63%
    04:00 -6°C° 0 mm 6 m/S 777 mmHg 63%
    05:00 -6°C° 0 mm 6 m/S 777 mmHg 62%
    06:00 -5°C° 0 mm 6 m/S 777 mmHg 62%
    07:00 -5°C° 0 mm 6 m/S 777 mmHg 62%
    08:00 -6°C° 0 mm 7 m/S 777 mmHg 61%
    09:00 -6°C° 0 mm 7 m/S 777 mmHg 60%
    10:00 -6°C° 0 mm 7 m/S 777 mmHg 59%
    11:00 -6°C° 0 mm 7 m/S 777 mmHg 57%
    12:00 -4°C° 0 mm 7 m/S 777 mmHg 55%
    13:00 -5°C° 0 mm 8 m/S 777 mmHg 53%
    14:00 -5°C° 0,1 mm 8 m/S 777 mmHg 53%
    15:00 -6°C° 0,1 mm 9 m/S 776 mmHg 52%
    16:00 -6°C° 0,1 mm 9 m/S 776 mmHg 52%
    17:00 -6°C° 0,1 mm 9 m/S 777 mmHg 54%
    18:00 -7°C° 0,1 mm 10 m/S 777 mmHg 56%
    19:00 -8°C° 0,1 mm 10 m/S 777 mmHg 57%
    20:00 -8°C° 0,1 mm 10 m/S 778 mmHg 58%
    21:00 -8°C° 0,1 mm 10 m/S 778 mmHg 58%
    22:00 -8°C° 0,1 mm 10 m/S 778 mmHg 59%
    23:00 -8°C° 0,1 mm 10 m/S 778 mmHg 59%
    Mehr zeigen